TimeMST,TemperatureF,Dew PointF,Humidity,Sea Level PressureIn,VisibilityMPH,Wind Direction,Wind SpeedMPH,Gust SpeedMPH,PrecipitationIn,Events,Conditions,WindDirDegrees,DateUTC
12:56 AM,30.9,21.9,69,29.79,10.0,WSW,24.2,31.1,N/A,,Clear,250,2012-12-11 07:56:00
1:56 AM,33.1,23.0,66,29.76,10.0,West,26.5,-,N/A,,Clear,260,2012-12-11 08:56:00
2:56 AM,33.1,23.0,66,29.74,10.0,WSW,24.2,36.8,N/A,,Clear,250,2012-12-11 09:56:00
3:56 AM,34.0,23.0,64,29.68,10.0,WSW,29.9,41.4,N/A,,Clear,250,2012-12-11 10:56:00
4:56 AM,35.1,23.0,61,29.65,10.0,WSW,26.5,39.1,N/A,,Mostly Cloudy,250,2012-12-11 11:56:00
5:56 AM,36.0,24.1,62,29.62,10.0,WSW,32.2,43.7,N/A,,Scattered Clouds,250,2012-12-11 12:56:00
6:56 AM,37.0,24.1,59,29.57,10.0,WSW,27.6,34.5,N/A,,Overcast,250,2012-12-11 13:56:00
7:56 AM,37.0,24.1,59,29.53,10.0,WSW,31.1,39.1,N/A,,Scattered Clouds,250,2012-12-11 14:56:00
8:56 AM,37.0,24.1,59,29.51,10.0,WSW,34.5,41.4,N/A,,Clear,250,2012-12-11 15:56:00
9:56 AM,37.4,24.8,60,29.45,10.0,WSW,32.2,40.3,N/A,,Clear,240,2012-12-11 16:56:00
10:56 AM,37.0,25.0,62,29.49,10.0,WSW,27.6,33.4,N/A,,Clear,240,2012-12-11 17:56:00
11:56 AM,37.9,24.1,57,29.46,10.0,WSW,24.2,31.1,N/A,,Clear,250,2012-12-11 18:56:00
12:56 PM,37.9,25.0,60,29.45,10.0,WSW,16.1,27.6,N/A,,Clear,250,2012-12-11 19:56:00
1:56 PM,39.0,24.1,55,29.46,10.0,West,18.4,-,N/A,,Clear,260,2012-12-11 20:56:00
2:56 PM,39.0,23.0,53,29.46,10.0,West,12.7,-,N/A,,Mostly Cloudy,270,2012-12-11 21:56:00
3:56 PM,37.0,25.0,62,29.47,10.0,West,16.1,-,N/A,,Clear,260,2012-12-11 22:56:00
4:56 PM,34.0,25.0,70,29.48,10.0,WSW,10.4,-,N/A,,Partly Cloudy,250,2012-12-11 23:56:00
5:56 PM,33.1,23.0,66,29.48,10.0,WSW,12.7,-,N/A,,Clear,250,2012-12-12 00:56:00
6:56 PM,33.1,23.0,66,29.49,10.0,West,15.0,-,N/A,,Clear,260,2012-12-12 01:56:00
7:56 PM,33.1,23.0,66,29.49,10.0,SW,8.1,-,N/A,,Mostly Cloudy,230,2012-12-12 02:56:00
8:56 PM,33.1,23.0,66,29.49,10.0,West,9.2,-,N/A,,Scattered Clouds,260,2012-12-12 03:56:00
9:56 PM,33.1,25.0,72,29.49,10.0,West,9.2,-,N/A,,Overcast,280,2012-12-12 04:56:00
10:56 PM,33.1,25.0,72,29.51,10.0,WNW,5.8,-,N/A,,Overcast,290,2012-12-12 05:56:00
11:56 PM,28.9,23.0,78,29.52,10.0,Calm,Calm,-,N/A,,Overcast,0,2012-12-12 06:56:00